Theta_e
290 291 291 291 291 291 292 292 293 294 294 294 294 293 291 289 289 289 291 288 288 288
288 288 288 289 289 289 290 292 291 291 291 292 292 292 291 288 288 288 288 290 289 289
287 287 287 287 286 287 288 289 288 288 288 289 290 290 289 288 287 287 287 288 287 288
285 285 285 284 285 285 286 286 287 287 286 287 287 287 287 287 287 286 286 286 285 287
284 284 282 282 283 283 284 284 285 286 285 285 286 285 286 286 287 285 285 285 285 285
282 282 281 280 281 282 282 282 282 283 283 283 284 284 285 285 285 285 285 285 285 286
281 281 281 280 280 280 281 280 280 281 282 282 283 283 284 284 285 285 285 285 286 286
280 280 279 279 279 279 280 280 279 280 280 281 281 283 283 283 284 283 284 284 285 285
280 280 279 279 278 278 278 278 278 278 279 279 280 284 286 286 283 284 284 283 284 284
279 278 279 279 278 277 276 276 277 277 277 277 279 283 284 286 283 283 283 284 284 284
278 278 279 278 278 277 276 275 275 275 276 276 277 282 283 284 282 282 282 283 283 283
276 275 276 276 276 276 276 275 274 275 274 274 275 279 280 281 279 280 281 282 283 283
274 273 272 273 274 275 274 274 274 273 273 273 272 276 278 278 277 277 279 280 282 284
269 268 268 268 269 269 269 270 270 270 270 270 271 271 276 277 276 276 277 278 279 281
Wind_Speed
8 5 6 8 7 6 5 5 6 6 6 7 7 6 6 4 5 7 9 9 7 6
8 8 7 8 7 7 8 9 9 8 7 6 6 7 6 5 6 7 7 11 9 8
6 6 6 5 7 7 8 9 9 8 8 8 7 6 6 5 6 7 6 6 8 9
5 6 7 9 8 7 6 7 8 9 8 8 7 7 7 7 7 8 8 7 8 11
3 5 6 7 7 8 10 8 6 6 6 7 8 7 7 8 7 8 9 8 9 11
4 4 3 4 4 5 6 6 7 8 8 8 6 7 8 7 8 8 9 10 10 12
5 5 4 3 5 6 6 7 7 8 7 7 8 9 8 8 10 10 11 11 12 12
7 7 7 6 6 6 6 6 6 8 9 8 7 7 8 9 9 10 11 11 12 13
7 8 8 6 6 6 8 7 7 10 9 11 9 16 20 17 10 11 12 13 13 12
9 10 12 11 10 9 9 8 11 11 10 13 13 21 25 23 12 12 13 14 13 13
8 10 11 11 14 14 11 12 12 13 13 14 15 26 26 26 16 14 15 15 15 16
7 10 13 15 17 16 14 15 16 15 17 16 17 27 29 26 16 16 18 15 16 15
11 12 14 16 17 15 14 16 15 19 18 21 21 31 34 29 14 17 15 17 17 23
13 14 15 17 15 16 18 19 19 20 20 22 21 24 37 37 19 16 16 15 14 12
Wind_Direction
8 16 22 13 11 359 351 336 348 309 250 228 231 242 231 226 223 224 226 221 212 211
17 11 16 24 26 16 356 344 342 326 317 291 247 231 241 232 234 233 229 232 230 222
12 5 1 27 30 9 352 349 338 339 335 327 306 263 244 242 236 232 235 233 235 233
1 353 356 22 18 5 343 336 340 339 333 322 315 296 267 250 241 238 234 233 233 239
15 360 16 19 357 343 337 335 319 321 318 317 310 303 290 279 265 242 244 236 234 240
343 356 6 10 330 303 294 298 313 324 328 323 301 294 292 280 272 259 249 244 239 240
323 324 323 307 293 293 296 302 308 312 302 294 300 299 289 280 275 270 264 256 251 249
317 319 313 307 294 291 294 286 293 294 292 291 287 278 283 282 284 280 277 264 258 257
306 304 303 289 277 277 285 280 282 287 278 284 279 283 290 288 275 267 267 267 261 255
306 303 305 303 298 289 289 290 287 280 274 277 274 281 286 284 276 265 259 259 265 265
287 288 288 289 289 289 290 289 286 284 282 281 279 280 281 281 275 270 264 256 251 250
298 299 298 292 289 286 284 285 287 284 287 283 280 282 283 282 277 267 264 259 254 249
316 309 305 303 300 297 292 285 285 283 281 283 283 284 284 283 276 269 263 259 256 247
314 311 304 300 299 298 295 291 287 283 282 280 277 281 283 281 274 264 264 260 256 248